Home > Weather > Sidney > Past weeks

Flag for Canada Past Weather in Sidney, British Columbia, Canada — Yesterday and Last 2 Weeks

Now
55 °F

Clear.


Feels Like: 54 °F
Forecast: 53 / 72 °F
Wind: 6 mph from Southwest

Location: Victoria Int. Airportb. C.

Current Time: Jun 26, 2016 at 3:12:24 AM

Latest Report: Jun 26, 2016 at 2:00 AM


Visibility: 30 mi

Pressure: 30.23 "Hg

Humidity: 88%

Dew Point: 52 °F

Location of SidneyLocation

Past Weather in Sidney — Graph

°F

Sidney Temperature Yesterday

Maximum temperature yesterday: 68 °F (at 4:00 PM)
Minimum temperature yesterday: 57 °F (at 2:00 AM)
Average temperature yesterday: 62 °F

High & Low Weather Summary for the Past Weeks

 TemperatureHumidityPressure
High70 °F (Jun 17, 3:00 PM)100% (Jun 23, 12:00 AM)30.40 "Hg (Jun 23, 12:00 AM)
Low46 °F (Jun 16, 2:00 AM)35% (Jun 17, 6:00 PM)29.87 "Hg (Jun 14, 4:00 AM)
Average58 °F69%30.11 "Hg
* Reported Jun 11 2:00 AM — Jun 26 2:00 AM, Sidney, Weather by CustomWeather, © 2016

Note: Actual official high and low records may vary slightly from our data, if they occured in-between our weather recording intervals... More about our weather records

Advertising

Sidney Weather History for the Previous 24 Hours

Scroll right to see more
 ConditionsComfort  
Time TempWeatherWind HumidityBarometerVisibility
2:00 AM
Sun, Jun 26
55 °FClear.6 mph88%30.23 "Hg30 mi
1:00 AM57 °FClear.5 mph82%30.23 "Hg30 mi
12:00 AM55 °FClear.3 mph82%30.23 "Hg30 mi
11:00 PM
Sat, Jun 25
57 °FPassing clouds.3 mph82%30.23 "Hg30 mi
10:00 PM59 °FPassing clouds.No wind72%30.23 "Hg30 mi
9:00 PM61 °FPassing clouds.6 mph68%30.22 "Hg30 mi
8:00 PM66 °FPassing clouds.6 mph56%30.22 "Hg30 mi
7:00 PM66 °FPassing clouds.7 mph60%30.22 "Hg30 mi
6:00 PM66 °FPassing clouds.7 mph56%30.24 "Hg30 mi
5:00 PM68 °FScattered clouds.7 mph53%30.25 "Hg30 mi
4:00 PM68 °FScattered clouds.8 mph56%30.26 "Hg30 mi
3:00 PM66 °FPassing clouds.9 mph60%30.27 "Hg30 mi
2:00 PM66 °FPassing clouds.8 mph60%30.27 "Hg30 mi
1:00 PM66 °FScattered clouds.7 mph60%30.27 "Hg30 mi
12:00 PM64 °FScattered clouds.8 mph60%30.27 "Hg30 mi
11:00 AM66 °FBroken clouds.3 mph60%30.27 "Hg30 mi
10:00 AM63 °FPartly sunny.2 mph64%30.28 "Hg30 mi
9:00 AM59 °FBroken clouds.6 mph72%30.28 "Hg30 mi
8:00 AM59 °FMostly cloudy.9 mph72%30.27 "Hg30 mi
7:00 AM57 °FMostly cloudy.9 mph77%30.27 "Hg30 mi
6:00 AM57 °FPassing clouds.10 mph77%30.27 "Hg30 mi
5:00 AM57 °FPassing clouds.8 mph77%30.26 "Hg30 mi
4:00 AM57 °FPassing clouds.9 mph77%30.26 "Hg30 mi
3:00 AM57 °FOvercast.10 mph72%30.26 "Hg30 mi
Weather by CustomWeather, © 2016

See weather overviewHow to use our weather pages